This is the latest recevied weather packets stored in our database for station/object K1BES. If no packets are shown the sender has not sent any weather packets the latest 10 day(s).
| Time | Temp. | Humidity | Pressure | Rain* | Wind** | Luminosity | Snow |
|---|---|---|---|---|---|---|---|
| 1777730156 | 28.89° C | 79% | 1013 hPa | 0 mm | - | 474 W/m² | - |
| 1777729854 | 28.89° C | 79% | 1013 hPa | 0 mm | - | 462 W/m² | - |
| 1777729550 | 28.33° C | 79% | 1013 hPa | 0 mm | - | 445 W/m² | - |
| 1777729247 | 28.33° C | 79% | 1012.9 hPa | 0 mm | - | 429 W/m² | - |
| 1777728944 | 27.78° C | 81% | 1013.1 hPa | 0 mm | - | 400 W/m² | - |
| 1777728641 | 27.78° C | 81% | 1013.2 hPa | 0 mm | - | 364 W/m² | - |
| 1777728338 | 27.78° C | 82% | 1013.1 hPa | 0 mm | - | 367 W/m² | - |
| 1777728034 | 27.78° C | 82% | 1013.2 hPa | 0 mm | - | 345 W/m² | - |
| 1777727731 | 27.78° C | 83% | 1013.4 hPa | 0 mm | - | 337 W/m² | - |
| 1777727428 | 27.78° C | 83% | 1013 hPa | 0 mm | - | 323 W/m² | - |
| 1777727126 | 27.78° C | 84% | 1013.1 hPa | 0 mm | - | 295 W/m² | - |
| 1777726824 | 27.78° C | 85% | 1012.9 hPa | 0 mm | - | 278 W/m² | - |
| 1777726520 | 27.22° C | 85% | 1012.9 hPa | 0 mm | - | 248 W/m² | - |
| 1777726217 | 27.22° C | 86% | 1012.8 hPa | 0 mm | - | 234 W/m² | - |
| 1777725914 | 27.22° C | 87% | 1012.7 hPa | 0 mm | - | 216 W/m² | - |
| 1777725611 | 26.67° C | 87% | 1012.8 hPa | 0 mm | - | 191 W/m² | - |
| 1777725309 | 26.67° C | 88% | 1012.8 hPa | 0 mm | - | 179 W/m² | - |
| 1777725005 | 26.67° C | 88% | 1012.7 hPa | 0 mm | - | 151 W/m² | - |
| 1777724701 | 26.67° C | 89% | 1012.6 hPa | 0 mm | - | 152 W/m² | - |
| 1777724400 | 26.11° C | 89% | 1012.8 hPa | 0 mm | - | 139 W/m² | - |
| 1777724096 | 26.11° C | 90% | 1012.3 hPa | 0 mm | - | 122 W/m² | - |
| 1777723794 | 26.11° C | 90% | 1012.7 hPa | 0 mm | - | 111 W/m² | - |
| 1777723490 | 25.56° C | 91% | 1012.6 hPa | 0 mm | - | 99 W/m² | - |
| 1777723187 | 25.56° C | 91% | 1012.3 hPa | 0 mm | - | 63 W/m² | - |
| 1777722885 | 25.56° C | 91% | 1012.5 hPa | 0 mm | - | 57 W/m² | - |
* Rain latest hour (hover to see other rain measurements)
** Current wind speed in m/s (hover to see current wind gust speed)